RPB671 SKSP-SKCG

Flight info

Callsign RPB671
Flight time 1h 3m
Altitude 35000
Route DAGAS3B DAGAS UL667 AGUJA G445 KOPGI KOPGI2B
Aircraft B738/M-SDE2E3FGHIRWXY/LB1

Departure

Time 2026-05-04 02:47
Airport Gustavo Rojas Pinilla International Airport (SKSP)

Arrival

Time 2026-05-04 03:51
Airport Rafael Nuñez International Airport (SKCG)
Time Latitude Longitude Altitude Speed Heading
2026-05-04 02:24 12.58643 -81.70306 33 ft 0 kts 149°
2026-05-04 02:36 12.58644 -81.70307 33 ft 2 kts 149°
2026-05-04 02:37 12.58666 -81.70320 32 ft 4 kts 149°
2026-05-04 02:37 12.58686 -81.70332 33 ft 4 kts 154°
2026-05-04 02:37 12.58708 -81.70337 32 ft 4 kts 216°
2026-05-04 02:37 12.58720 -81.70316 31 ft 4 kts 250°
2026-05-04 02:38 12.58726 -81.70303 31 ft 1 kts 239°
2026-05-04 02:41 12.58722 -81.70309 31 ft 2 kts 239°
2026-05-04 02:41 12.58714 -81.70323 32 ft 3 kts 239°
2026-05-04 02:42 12.58701 -81.70346 33 ft 4 kts 244°
2026-05-04 02:42 12.58713 -81.70385 33 ft 8 kts 295°
2026-05-04 02:42 12.58735 -81.70453 33 ft 11 kts 265°
2026-05-04 02:42 12.58704 -81.70531 34 ft 13 kts 240°
2026-05-04 02:43 12.58656 -81.70614 39 ft 14 kts 240°
2026-05-04 02:43 12.58608 -81.70701 43 ft 14 kts 240°
2026-05-04 02:43 12.58559 -81.70787 45 ft 13 kts 240°
2026-05-04 02:43 12.58509 -81.70875 48 ft 15 kts 239°
2026-05-04 02:44 12.58454 -81.70969 53 ft 16 kts 237°
2026-05-04 02:44 12.58397 -81.71064 55 ft 17 kts 239°
2026-05-04 02:44 12.58333 -81.71176 51 ft 19 kts 240°
2026-05-04 02:44 12.58264 -81.71299 58 ft 21 kts 240°
2026-05-04 02:45 12.58189 -81.71427 63 ft 22 kts 239°
2026-05-04 02:45 12.58108 -81.71569 62 ft 23 kts 239°
2026-05-04 02:45 12.58027 -81.71710 69 ft 23 kts 240°
2026-05-04 02:45 12.57948 -81.71846 71 ft 22 kts 239°
2026-05-04 02:46 12.57883 -81.71956 83 ft 16 kts 233°
2026-05-04 02:46 12.57821 -81.72016 81 ft 9 kts 284°
2026-05-04 02:46 12.57863 -81.71985 84 ft 18 kts 65°
2026-05-04 02:46 12.58070 -81.71623 65 ft 101 kts 59°
2026-05-04 02:47 12.58555 -81.70781 49 ft 172 kts 59°
2026-05-04 02:47 12.59212 -81.69619 584 ft 196 kts 59°
2026-05-04 02:47 12.59920 -81.68400 1526 ft 200 kts 58°
2026-05-04 02:47 12.60573 -81.67136 2299 ft 208 kts 75°
2026-05-04 02:48 12.60421 -81.65602 2530 ft 236 kts 113°
2026-05-04 02:48 12.59564 -81.64067 2962 ft 255 kts 117°
2026-05-04 02:48 12.58682 -81.62476 3785 ft 258 kts 115°
2026-05-04 02:48 12.57849 -81.60857 4591 ft 262 kts 114°
2026-05-04 02:49 12.57038 -81.59171 5412 ft 266 kts 112°
2026-05-04 02:49 12.56255 -81.57443 6237 ft 269 kts 112°
2026-05-04 02:49 12.55494 -81.55676 6997 ft 273 kts 111°
2026-05-04 02:49 12.54744 -81.53872 7758 ft 277 kts 110°
2026-05-04 02:50 12.54007 -81.52045 8492 ft 280 kts 110°
2026-05-04 02:50 12.53269 -81.50175 9170 ft 285 kts 110°
2026-05-04 02:50 12.52534 -81.48283 9862 ft 288 kts 109°
2026-05-04 02:50 12.51796 -81.46360 10539 ft 292 kts 109°
2026-05-04 02:51 12.51050 -81.44403 11181 ft 297 kts 109°
2026-05-04 02:51 12.50297 -81.42416 11864 ft 301 kts 109°
2026-05-04 02:51 12.49538 -81.40405 12537 ft 305 kts 110°
2026-05-04 02:51 12.48772 -81.38371 13225 ft 307 kts 110°
2026-05-04 02:52 12.48011 -81.36347 13877 ft 310 kts 110°
2026-05-04 02:52 12.47224 -81.34251 14534 ft 313 kts 110°
2026-05-04 02:52 12.46441 -81.32160 15191 ft 316 kts 110°
2026-05-04 02:52 12.45652 -81.30058 15842 ft 319 kts 111°
2026-05-04 02:53 12.44863 -81.27954 16465 ft 321 kts 111°
2026-05-04 02:53 12.44061 -81.25814 17092 ft 324 kts 111°
2026-05-04 02:53 12.43248 -81.23650 17651 ft 327 kts 111°
2026-05-04 02:53 12.42430 -81.21466 18253 ft 330 kts 111°
2026-05-04 02:54 12.41605 -81.19264 18837 ft 333 kts 112°
2026-05-04 02:54 12.40771 -81.17040 19361 ft 337 kts 112°
2026-05-04 02:54 12.39926 -81.14787 19885 ft 341 kts 112°
2026-05-04 02:54 12.39071 -81.12510 20390 ft 345 kts 112°
2026-05-04 02:55 12.37340 -81.07905 21353 ft 353 kts 112°
2026-05-04 02:55 12.36457 -81.05550 21824 ft 357 kts 112°
2026-05-04 02:55 12.35562 -81.03169 22290 ft 360 kts 112°
2026-05-04 02:56 12.34658 -81.00763 22739 ft 364 kts 113°
2026-05-04 02:56 12.33745 -80.98336 23185 ft 368 kts 113°
2026-05-04 02:56 12.32823 -80.95883 23606 ft 371 kts 113°
2026-05-04 02:56 12.31892 -80.93406 24028 ft 374 kts 113°
2026-05-04 02:57 12.30954 -80.90911 24445 ft 378 kts 113°
2026-05-04 02:57 12.30006 -80.88393 24849 ft 380 kts 113°
2026-05-04 02:57 12.29051 -80.85855 25286 ft 383 kts 113°
2026-05-04 02:57 12.28092 -80.83309 25697 ft 385 kts 113°
2026-05-04 02:58 12.27125 -80.80743 26105 ft 387 kts 112°
2026-05-04 02:58 12.26155 -80.78168 26500 ft 390 kts 112°
2026-05-04 02:58 12.25177 -80.75571 26889 ft 392 kts 112°
2026-05-04 02:58 12.24195 -80.72966 27250 ft 394 kts 112°
2026-05-04 02:59 12.23205 -80.70341 27614 ft 397 kts 112°
2026-05-04 02:59 12.22221 -80.67734 27966 ft 399 kts 112°
2026-05-04 02:59 12.21221 -80.65081 28311 ft 401 kts 112°
2026-05-04 02:59 12.20214 -80.62412 28650 ft 403 kts 112°
2026-05-04 03:00 12.19201 -80.59731 28993 ft 405 kts 111°
2026-05-04 03:00 12.18183 -80.57034 29328 ft 407 kts 111°
2026-05-04 03:00 12.17163 -80.54335 29635 ft 409 kts 111°
2026-05-04 03:00 12.16136 -80.51619 29961 ft 410 kts 111°
2026-05-04 03:01 12.15104 -80.48892 30308 ft 411 kts 111°
2026-05-04 03:01 12.14070 -80.46158 30607 ft 413 kts 111°
2026-05-04 03:01 12.13029 -80.43404 30868 ft 416 kts 111°
2026-05-04 03:01 12.11983 -80.40641 31159 ft 418 kts 111°
2026-05-04 03:02 12.10929 -80.37861 31442 ft 420 kts 111°
2026-05-04 03:02 12.09884 -80.35101 31682 ft 423 kts 111°
2026-05-04 03:02 12.08818 -80.32289 31920 ft 425 kts 111°
2026-05-04 03:02 12.07747 -80.29462 32166 ft 428 kts 111°
2026-05-04 03:03 12.06670 -80.26622 32408 ft 430 kts 111°
2026-05-04 03:03 12.05585 -80.23764 32647 ft 432 kts 111°
2026-05-04 03:03 12.04498 -80.20899 32880 ft 434 kts 112°
2026-05-04 03:03 12.03405 -80.18018 33100 ft 436 kts 112°
2026-05-04 03:04 12.02304 -80.15121 33310 ft 438 kts 112°
2026-05-04 03:04 12.01201 -80.12217 33584 ft 438 kts 112°
2026-05-04 03:04 12.00102 -80.09326 33894 ft 437 kts 112°
2026-05-04 03:04 11.98998 -80.06424 34113 ft 438 kts 112°
2026-05-04 03:05 11.97891 -80.03512 34265 ft 441 kts 112°
2026-05-04 03:05 11.96777 -80.00583 34432 ft 443 kts 112°
2026-05-04 03:05 11.95660 -79.97644 34656 ft 444 kts 112°
2026-05-04 03:05 11.94541 -79.94701 34878 ft 445 kts 112°
2026-05-04 03:06 11.93416 -79.91748 34958 ft 448 kts 112°
2026-05-04 03:06 11.91150 -79.85804 34969 ft 456 kts 112°
2026-05-04 03:07 11.88826 -79.79711 34974 ft 464 kts 112°
2026-05-04 03:07 11.86464 -79.73519 34974 ft 471 kts 112°
2026-05-04 03:08 11.84066 -79.67241 34974 ft 477 kts 112°
2026-05-04 03:08 11.81644 -79.60898 34962 ft 481 kts 112°
2026-05-04 03:09 11.79210 -79.54532 34954 ft 482 kts 112°
2026-05-04 03:09 11.76785 -79.48196 34950 ft 482 kts 112°
2026-05-04 03:10 11.74349 -79.41834 34955 ft 480 kts 112°
2026-05-04 03:10 11.71919 -79.35494 34948 ft 478 kts 112°
2026-05-04 03:11 11.69495 -79.29175 34954 ft 476 kts 112°
2026-05-04 03:11 11.67080 -79.22885 34953 ft 476 kts 112°
2026-05-04 03:12 11.64685 -79.16645 34953 ft 475 kts 111°
2026-05-04 03:12 11.62288 -79.10380 34958 ft 473 kts 111°
2026-05-04 03:13 11.59937 -79.04115 34953 ft 472 kts 111°
2026-05-04 03:13 11.57599 -78.97861 34953 ft 471 kts 111°
2026-05-04 03:14 11.55254 -78.91608 34946 ft 471 kts 111°
2026-05-04 03:14 11.52907 -78.85366 34943 ft 471 kts 111°
2026-05-04 03:15 11.50573 -78.79162 34948 ft 471 kts 111°
2026-05-04 03:15 11.48225 -78.72922 34950 ft 471 kts 111°
2026-05-04 03:16 11.46269 -78.67728 34945 ft 472 kts 111°
2026-05-04 03:16 11.43915 -78.61482 34945 ft 472 kts 111°
2026-05-04 03:17 11.41559 -78.55235 34937 ft 472 kts 111°
2026-05-04 03:17 11.39198 -78.48981 34935 ft 472 kts 111°
2026-05-04 03:18 11.36848 -78.42764 34932 ft 473 kts 111°
2026-05-04 03:18 11.34486 -78.36513 34935 ft 473 kts 111°
2026-05-04 03:19 11.32120 -78.30258 34938 ft 473 kts 111°
2026-05-04 03:19 11.29751 -78.23999 34933 ft 473 kts 111°
2026-05-04 03:20 11.27379 -78.17741 34934 ft 473 kts 111°
2026-05-04 03:20 11.25007 -78.11482 34850 ft 475 kts 111°
2026-05-04 03:21 11.22631 -78.05221 34933 ft 472 kts 111°
2026-05-04 03:21 11.20261 -77.98978 34932 ft 472 kts 111°
2026-05-04 03:22 11.17895 -77.92753 34936 ft 471 kts 111°
2026-05-04 03:22 11.15531 -77.86533 34938 ft 471 kts 111°
2026-05-04 03:23 11.13165 -77.80314 34933 ft 471 kts 111°
2026-05-04 03:23 11.10815 -77.74145 34929 ft 471 kts 111°
2026-05-04 03:24 11.08445 -77.67924 34925 ft 471 kts 111°
2026-05-04 03:24 11.06078 -77.61717 34923 ft 470 kts 111°
2026-05-04 03:25 11.03710 -77.55509 34926 ft 470 kts 111°
2026-05-04 03:25 11.01338 -77.49294 34932 ft 470 kts 111°
2026-05-04 03:26 10.98967 -77.43087 34921 ft 471 kts 111°
2026-05-04 03:26 10.96521 -77.36903 34926 ft 471 kts 112°
2026-05-04 03:27 10.93967 -77.30785 34908 ft 463 kts 113°
2026-05-04 03:27 10.92723 -77.27815 34906 ft 448 kts 113°
2026-05-04 03:27 10.91524 -77.24941 34901 ft 434 kts 113°
2026-05-04 03:27 10.90367 -77.22156 34907 ft 421 kts 112°
2026-05-04 03:28 10.89244 -77.19448 34901 ft 408 kts 112°
2026-05-04 03:28 10.88154 -77.16817 34675 ft 402 kts 112°
2026-05-04 03:28 10.87061 -77.14174 34090 ft 406 kts 112°
2026-05-04 03:28 10.85979 -77.11556 33616 ft 407 kts 112°
2026-05-04 03:29 10.84882 -77.08907 33260 ft 404 kts 112°
2026-05-04 03:29 10.83794 -77.06280 32922 ft 401 kts 112°
2026-05-04 03:29 10.82717 -77.03679 32588 ft 398 kts 112°
2026-05-04 03:29 10.81643 -77.01085 32058 ft 400 kts 112°
2026-05-04 03:30 10.80540 -76.98424 31081 ft 415 kts 112°
2026-05-04 03:30 10.79406 -76.95688 30190 ft 425 kts 112°
2026-05-04 03:30 10.78248 -76.92897 29267 ft 430 kts 112°
2026-05-04 03:30 10.77081 -76.90084 28353 ft 432 kts 113°
2026-05-04 03:31 10.75909 -76.87259 27434 ft 433 kts 113°
2026-05-04 03:31 10.74753 -76.84474 26530 ft 433 kts 113°
2026-05-04 03:31 10.73584 -76.81658 25609 ft 432 kts 113°
2026-05-04 03:31 10.72415 -76.78844 24689 ft 431 kts 113°
2026-05-04 03:32 10.71250 -76.76043 23767 ft 430 kts 113°
2026-05-04 03:32 10.70086 -76.73242 22845 ft 428 kts 113°
2026-05-04 03:32 10.68932 -76.70467 21924 ft 425 kts 113°
2026-05-04 03:32 10.67785 -76.67706 21001 ft 422 kts 113°
2026-05-04 03:33 10.66647 -76.64969 20076 ft 418 kts 113°
2026-05-04 03:33 10.65522 -76.62263 19157 ft 414 kts 113°
2026-05-04 03:33 10.64409 -76.59586 18236 ft 409 kts 113°
2026-05-04 03:33 10.63308 -76.56939 17379 ft 403 kts 113°
2026-05-04 03:34 10.62245 -76.54386 17174 ft 382 kts 113°
2026-05-04 03:34 10.61215 -76.51914 16922 ft 383 kts 113°
2026-05-04 03:34 10.60160 -76.49380 16689 ft 393 kts 112°
2026-05-04 03:34 10.59092 -76.46815 16433 ft 393 kts 113°
2026-05-04 03:35 10.58031 -76.44271 16131 ft 389 kts 112°
2026-05-04 03:35 10.56994 -76.41783 15661 ft 385 kts 112°
2026-05-04 03:35 10.55952 -76.39284 15158 ft 382 kts 112°
2026-05-04 03:35 10.54920 -76.36811 14663 ft 379 kts 112°
2026-05-04 03:36 10.53945 -76.34344 14282 ft 373 kts 111°
2026-05-04 03:36 10.53022 -76.31892 13789 ft 370 kts 110°
2026-05-04 03:36 10.52119 -76.29458 13316 ft 367 kts 110°
2026-05-04 03:36 10.51220 -76.27037 12835 ft 365 kts 110°
2026-05-04 03:37 10.50325 -76.24632 12351 ft 363 kts 110°
2026-05-04 03:37 10.49432 -76.22244 11868 ft 360 kts 110°
2026-05-04 03:37 10.48543 -76.19873 11387 ft 358 kts 110°
2026-05-04 03:37 10.47656 -76.17514 11078 ft 351 kts 110°
2026-05-04 03:38 10.46795 -76.15228 10918 ft 341 kts 110°
2026-05-04 03:38 10.45971 -76.13044 10776 ft 330 kts 110°
2026-05-04 03:38 10.45161 -76.10897 10630 ft 321 kts 110°
2026-05-04 03:38 10.44373 -76.08810 10498 ft 312 kts 110°
2026-05-04 03:39 10.43607 -76.06780 10372 ft 303 kts 110°
2026-05-04 03:39 10.42863 -76.04808 10241 ft 295 kts 110°
2026-05-04 03:39 10.42138 -76.02885 10117 ft 287 kts 110°
2026-05-04 03:39 10.41434 -76.01019 10000 ft 279 kts 110°
2026-05-04 03:40 10.40742 -75.99186 9742 ft 277 kts 110°
2026-05-04 03:40 10.40050 -75.97355 9477 ft 276 kts 110°
2026-05-04 03:40 10.39364 -75.95538 9199 ft 274 kts 110°
2026-05-04 03:40 10.38681 -75.93732 8923 ft 273 kts 110°
2026-05-04 03:41 10.38001 -75.91932 8646 ft 273 kts 110°
2026-05-04 03:41 10.37324 -75.90138 8370 ft 272 kts 110°
2026-05-04 03:41 10.36648 -75.88349 8087 ft 271 kts 110°
2026-05-04 03:41 10.35973 -75.86564 7810 ft 270 kts 110°
2026-05-04 03:42 10.35309 -75.84811 7534 ft 269 kts 110°
2026-05-04 03:42 10.34640 -75.83039 7255 ft 268 kts 110°
2026-05-04 03:42 10.33972 -75.81273 6976 ft 267 kts 110°
2026-05-04 03:42 10.33306 -75.79513 6703 ft 266 kts 110°
2026-05-04 03:43 10.32640 -75.77756 6424 ft 265 kts 110°
2026-05-04 03:43 10.31981 -75.76014 6152 ft 264 kts 110°
2026-05-04 03:43 10.31321 -75.74271 5886 ft 264 kts 110°
2026-05-04 03:43 10.30665 -75.72534 5603 ft 263 kts 110°
2026-05-04 03:44 10.30015 -75.70820 5333 ft 262 kts 110°
2026-05-04 03:44 10.29359 -75.69090 5053 ft 262 kts 110°
2026-05-04 03:44 10.28705 -75.67360 4789 ft 262 kts 110°
2026-05-04 03:44 10.28050 -75.65635 4519 ft 262 kts 110°
2026-05-04 03:45 10.27395 -75.63911 4248 ft 261 kts 110°
2026-05-04 03:45 10.26764 -75.62191 3995 ft 259 kts 104°
2026-05-04 03:45 10.26579 -75.60396 3807 ft 253 kts 89°
2026-05-04 03:45 10.26558 -75.58622 3613 ft 250 kts 90°
2026-05-04 03:46 10.26505 -75.56863 3419 ft 248 kts 91°
2026-05-04 03:46 10.26443 -75.55113 3197 ft 243 kts 91°
2026-05-04 03:46 10.26668 -75.53481 3094 ft 228 kts 60°
2026-05-04 03:46 10.27737 -75.52434 2992 ft 209 kts 22°
2026-05-04 03:47 10.29107 -75.52059 2762 ft 201 kts
2026-05-04 03:47 10.30450 -75.51862 2493 ft 189 kts
2026-05-04 03:47 10.31724 -75.51783 2252 ft 178 kts
2026-05-04 03:47 10.32911 -75.51741 2047 ft 164 kts
2026-05-04 03:48 10.34008 -75.51700 1820 ft 151 kts
2026-05-04 03:48 10.35017 -75.51660 1627 ft 144 kts
2026-05-04 03:48 10.36029 -75.51619 1461 ft 143 kts
2026-05-04 03:48 10.37022 -75.51580 1255 ft 147 kts
2026-05-04 03:49 10.38028 -75.51540 1059 ft 144 kts
2026-05-04 03:49 10.39027 -75.51501 871 ft 143 kts
2026-05-04 03:49 10.40026 -75.51461 677 ft 144 kts
2026-05-04 03:49 10.41029 -75.51421 485 ft 144 kts
2026-05-04 03:50 10.42019 -75.51383 306 ft 140 kts
2026-05-04 03:50 10.42974 -75.51338 67 ft 134 kts
2026-05-04 03:50 10.43866 -75.51305 13 ft 116 kts
2026-05-04 03:50 10.44551 -75.51279 14 ft 81 kts
2026-05-04 03:51 10.45014 -75.51258 16 ft 59 kts
2026-05-04 03:51 10.45237 -75.51250 15 ft 20 kts 352°
2026-05-04 03:51 10.45308 -75.51274 15 ft 8 kts 46°
2026-05-04 03:51 10.45298 -75.51244 15 ft 3 kts 182°
2026-05-04 03:52 10.45259 -75.51246 17 ft 8 kts 183°
2026-05-04 03:52 10.45189 -75.51250 17 ft 12 kts 183°
2026-05-04 03:52 10.45093 -75.51255 16 ft 16 kts 183°
2026-05-04 03:52 10.44972 -75.51261 17 ft 19 kts 182°
2026-05-04 03:53 10.44829 -75.51268 19 ft 22 kts 182°
2026-05-04 03:53 10.44674 -75.51281 15 ft 22 kts 205°
2026-05-04 03:53 10.44643 -75.51334 14 ft 2 kts 264°
2026-05-04 03:53 10.44639 -75.51364 14 ft 6 kts 264°
2026-05-04 03:54 10.44633 -75.51418 15 ft 9 kts 263°
2026-05-04 03:54 10.44598 -75.51460 13 ft 1 kts 198°
2026-05-04 03:54 10.44585 -75.51464 13 ft 3 kts 198°
2026-05-04 03:54 10.44559 -75.51478 13 ft 5 kts 231°
2026-05-04 03:55 10.44560 -75.51513 15 ft 6 kts 280°
2026-05-04 03:55 10.44562 -75.51558 13 ft 5 kts 271°
2026-05-04 03:55 10.44563 -75.51562 14 ft 0 kts 271°
2026-05-04 04:36 10.44562 -75.51542 13 ft 4 kts 271°
2026-05-04 04:37 10.44562 -75.51458 13 ft 8 kts 254°
2026-05-04 04:37 10.44536 -75.51490 13 ft 10 kts 280°
2026-05-04 04:38 10.44553 -75.51505 13 ft 9 kts 83°
2026-05-04 04:38 10.44520 -75.51509 13 ft 8 kts 188°
2026-05-04 04:38 10.44490 -75.51515 13 ft 5 kts 229°
2026-05-04 04:38 10.44483 -75.51546 13 ft 4 kts 269°
2026-05-04 04:39 10.44484 -75.51568 13 ft 1 kts 271°